Location: Unspecified
(0.0000°N, 0.0000°E)
Time: 02:47:47
(UTC+00:00)

Courier 1B Rocket - Pass Details

Date: 15 December 2018
Orbit: 920 x 1202 km, 28.2° (Epoch: 18 March)

Event Time Altitude Azimuth Distance (km) Brightness Sun altitude
Rises 04:16:18 0° 229° (SW) 3,588 - -22.5°
Exits shadow 04:17:19 - 227° (SW) 3,225 7.5 -22.3°
Reaches altitude 10° 04:19:03 10° 222° (SW) 2,624 7.1 -21.9°
Maximum altitude 04:25:01 45° 151° (SSE) 1,229 5.9 -20.6°
Drops below altitude 10° 04:30:57 10° 79° (E) 2,618 8.0 -19.2°
Sets 04:33:41 0° 73° (ENE) 3,580 8.7 -18.6°
